Location: ČR
(50.0000°N, 15.0000°E)
Time: 14:49:07
(UTC+00:00)

Explorer 7 - Pass Details

Date: 30 October 2021
Orbit: 483 x 675 km, 50.3° (Epoch: 27 November)

Event Time Altitude Azimuth Distance (km) Brightness Sun altitude
Rises 22:56:15 0° 285° (WNW) 2,741 - -54.0°
Reaches altitude 10° 22:58:32 10° 278° (W) 1,877 - -54.0°
Maximum altitude 23:02:34 41° 209° (SSW) 872 - -53.9°
Drops below altitude 10° 23:06:50 10° 139° (SE) 1,985 - -53.8°
Sets 23:09:18 0° 132° (SE) 2,920 - -53.7°
